This demonstration page uses our WeatherBlox Daily Observations layout. Learn more.

Left ArrowRight Arrow

Hourly Observations for January 27, 2022

Temp ( °F °C ) Dew Point ( °F °C ) Humidity (%) Winds ( mph kmh ) Pressure ( in mb ) Visibility ( mi km ) Precip ( " mm )
12:53 am 00:53 Clear 37 2.8 29 -1.7 73 73 Calm 30.21 1023 10 16 0.00 0.00
1:53 am 01:53 Clear 36 2.2 29 -1.7 76 76 Calm 30.21 1023 10 16 0.00 0.00
2:53 am 02:53 Clear 34 1.1 28 -2.2 79 79 Calm 30.20 1023 10 16 0.00 0.00
3:53 am 03:53 Clear 35 1.7 28 -2.2 76 76 NNE 3 6 30.20 1023 10 16 0.00 0.00
4:53 am 04:53 Clear 35 1.7 28 -2.2 76 76 Calm 30.19 1023 10 16 0.00 0.00
5:53 am 05:53 Clear 31 -0.6 26 -3.3 82 82 SSE 3 6 30.21 1023 10 16 0.00 0.00
6:53 am 06:53 Clear 32 0 27 -2.8 82 82 Calm 30.23 1024 10 16 0.00 0.00
7:53 am 07:53 Sunny 34 1.1 27 -2.8 76 76 N 3 6 30.25 1025 10 16 0.00 0.00
8:53 am 08:53 Sunny 42 5.6 30 -1.1 62 62 NW 3 6 30.26 1025 10 16 0.00 0.00
9:53 am 09:53 Sunny 50 10 35 1.7 57 57 Calm 30.26 1025 10 16 0.00 0.00
10:53 am 10:53 Sunny 64 17.8 23 -5 21 21 N 14 22 30.26 1025 10 16 0.00 0.00
11:53 am 11:53 Sunny 67 19.4 21 -6.1 17 17 N 12 19 30.24 1024 10 16 0.00 0.00
12:53 pm 12:53 Sunny 69 20.6 21 -6.1 16 16 N 13 20 30.22 1023 10 16 0.00 0.00
1:53 pm 13:53 Sunny 71 21.7 22 -5.6 16 16 NNE 9 15 30.21 1023 10 16 0.00 0.00
2:53 pm 14:53 Sunny 72 22.2 21 -6.1 15 15 NNE 12 19 30.19 1023 10 16 0.00 0.00
3:53 pm 15:53 Sunny 72 22.2 21 -6.1 15 15 N 8 13 30.20 1023 10 16 0.00 0.00
4:53 pm 16:53 Sunny 71 21.7 19 -7.2 14 14 NNW 6 9 30.20 1023 10 16 0.00 0.00
5:53 pm 17:53 Clear 65 18.3 19 -7.2 17 17 NNW 7 11 30.21 1023 10 16 0.00 0.00
6:53 pm 18:53 Clear 61 16.1 20 -6.7 20 20 NNW 8 13 30.23 1024 10 16 0.00 0.00
7:53 pm 19:53 Clear 63 17.2 17 -8.3 17 17 N 9 15 30.23 1024 10 16 0.00 0.00
8:53 pm 20:53 Clear 61 16.1 17 -8.3 18 18 N 8 13 30.25 1025 10 16 0.00 0.00
9:53 pm 21:53 Clear 49 9.4 24 -4.4 38 38 Calm 30.27 1025 10 16 0.00 0.00
10:53 pm 22:53 Clear 42 5.6 28 -2.2 58 58 ESE 3 6 30.29 1026 10 16 0.00 0.00
11:53 pm 23:53 Clear 43 6.1 27 -2.8 53 53 NNE 3 6 30.30 1026 10 16 0.00 0.00

Powered by AerisWeather